Location: *
(45.9500°N, 9.0833°E)
Time: 00:11:28
(UTC+00:00)

Tiros 1 despin weight - Pass Details

Date: 01 July 2021
Orbit: 593 x 642 km, 48.2° (Epoch: 02 August)

Event Time Altitude Azimuth Distance (km) Brightness Sun altitude
Rises 05:16:29 0° 287° (WNW) 2,839 ? 14.5°
Reaches altitude 10° 05:18:47 10° 287° (WNW) 1,931 ? 14.9°
Maximum altitude 05:23:12 81° 201° (SSW) 605 ? 15.6°
Drops below altitude 10° 05:27:36 10° 114° (ESE) 1,919 ? 16.4°
Sets 05:29:53 0° 113° (ESE) 2,820 ? 16.8°
